Massena, NY

12:44 PM EST on December 07, 2019 (GMT -0500)
Massena International-Richards

Weather History for KMSS - October, 2019

Change the Weather History Date:

Wednesday, October 9, 2019

  Actual Average Record
Temperature  
Mean Temperature 46 °F 49 °F  
Max Temperature 60 °F 59 °F 82 °F (2018)
Min Temperature 32 °F 39 °F 24 °F (1987)
Degree Days  
Heating Degree Days 19 16  
Month to date heating degree days 136 133  
Since 1 July heating degree days 351 433  
Cooling Degree Days 0 0  
Month to date cooling degree days 0 0  
Year to date cooling degree days 398 361  
Moisture  
Dew Point 38 °F    
Average Humidity 76    
Maximum Humidity 97    
Minimum Humidity 55    
Precipitation  
Precipitation 0.00 in 0.12 in 1.70 in (2017)
Month to date precipitation 1.28 1.00  
Year to date precipitation 24.99 27.19  
Sea Level Pressure  
Sea Level Pressure 30.41 in    
Wind  
Wind Speed 5 mph (NE)    
Max Wind Speed 17 mph    
Max Gust Speed 21 mph    
Visibility 7 miles    
Events Fog    
T = Trace of Precipitation, MM = Missing Value Source: NWS Daily Summary

Daily Weather History Graph

Daily Weather History Graph

Search for Another Location

Airport or City:

Astronomy

Oct. 09, 2019 Rise Set
Actual Time 7:07 AM EDT 6:25 PM EDT
Civil Twilight 6:37 AM EDT 6:54 PM EDT
Nautical Twilight 6:03 AM EDT 7:28 PM EDT
Astronomical Twilight 5:29 AM EDT 8:02 PM EDT
Moon 5:09 PM EDT (10/9) 2:36 AM EDT (10/9)
Length of Visible Light 12h 17m
Length of Day
11h 18m
Waxing Gibbous, 85% of the Moon is Illuminated
Oct 9
Waxing Gibbous
Oct 13
Full
Oct 21
Last Quarter
Oct 27
New
Nov 4
First Quarter

Hourly Weather History & Observations

Time (EDT) Temp. Windchill Dew Point Humidity Pressure Visibility Wind Dir Wind Speed Gust Speed Precip Events Conditions
12:53 AM 37.0 °F - 33.1 °F 86% 30.38 in 10.0 mi Calm Calm - N/A   Clear
1:53 AM 35.1 °F - 32.0 °F 89% 30.39 in 10.0 mi Calm Calm - N/A   Clear
2:53 AM 34.0 °F - 32.0 °F 92% 30.39 in 10.0 mi Calm Calm - N/A   Clear
3:24 AM 34.0 °F - 32.0 °F 92% 30.38 in 2.5 mi Calm Calm - N/A   Mostly Cloudy
3:40 AM 34.0 °F - 30.9 °F 89% 30.39 in 10.0 mi Calm Calm - N/A   Mostly Cloudy
3:53 AM 33.1 °F - 30.9 °F 92% 30.40 in 4.0 mi Calm Calm - N/A   Mostly Cloudy
4:02 AM 33.1 °F - 30.9 °F 92% 30.38 in 10.0 mi Calm Calm - N/A   Scattered Clouds
4:53 AM 33.1 °F - 30.0 °F 89% 30.40 in 10.0 mi Calm Calm - N/A   Clear
5:35 AM 33.1 °F - 30.0 °F 89% 30.39 in 10.0 mi Calm Calm - N/A   Scattered Clouds
5:43 AM 33.1 °F - 30.0 °F 89% 30.40 in 10.0 mi Calm Calm - N/A   Mostly Cloudy
5:47 AM 33.8 °F - 30.2 °F 87% 30.40 in 1.5 mi Calm Calm - N/A   Mostly Cloudy
5:53 AM 32.0 °F 28.7 °F 30.0 °F 92% 30.41 in 0.8 mi SSE 3.5 mph - N/A   Mist
6:53 AM 34.0 °F - 33.1 °F 96% 30.43 in 0.2 mi Calm Calm - N/A Fog Fog
7:53 AM 36.0 °F - 34.0 °F 93% 30.45 in 0.2 mi Calm Calm - N/A Fog Fog
8:53 AM 42.1 °F 39.2 °F 39.9 °F 92% 30.46 in 0.2 mi ENE 4.6 mph - N/A Fog Fog
9:49 AM 46.4 °F 43.5 °F 44.6 °F 93% 30.45 in 1.8 mi NNE 5.8 mph - N/A   Overcast
9:53 AM 46.0 °F 43.9 °F 45.0 °F 96% 30.47 in 3.0 mi NNE 4.6 mph - N/A   Mostly Cloudy
10:15 AM 48.0 °F - 46.0 °F 93% 30.45 in 10.0 mi NNE 4.6 mph - N/A   Partly Cloudy
10:53 AM 50.0 °F - 46.9 °F 89% 30.46 in 9.0 mi NE 6.9 mph - N/A   Scattered Clouds
11:53 AM 55.0 °F - 46.0 °F 72% 30.45 in 10.0 mi NNE 6.9 mph - N/A   Clear
12:53 PM 59.0 °F - 43.0 °F 55% 30.43 in 10.0 mi ENE 13.8 mph - N/A   Clear
1:53 PM 57.9 °F - 42.1 °F 56% 30.41 in 10.0 mi ENE 12.7 mph - N/A   Clear
2:53 PM 59.0 °F - 43.0 °F 55% 30.40 in 10.0 mi ENE 10.4 mph - N/A   Clear
3:53 PM 57.9 °F - 42.1 °F 56% 30.39 in 10.0 mi NE 12.7 mph - N/A   Clear
4:53 PM 59.0 °F - 44.1 °F 58% 30.38 in 10.0 mi NE 10.4 mph - N/A   Clear
5:53 PM 55.9 °F - 44.1 °F 64% 30.39 in 10.0 mi NE 6.9 mph - N/A   Clear
6:53 PM 50.0 °F - 42.1 °F 74% 30.39 in 10.0 mi NNE 6.9 mph - N/A   Clear
7:53 PM 46.9 °F - 41.0 °F 80% 30.40 in 10.0 mi NE 6.9 mph - N/A   Clear
8:53 PM 46.9 °F - 41.0 °F 80% 30.40 in 10.0 mi ENE 5.8 mph - N/A   Clear
9:53 PM 44.1 °F - 39.9 °F 85% 30.40 in 10.0 mi Calm Calm - N/A   Clear
10:53 PM 41.0 °F - 37.9 °F 89% 30.40 in 10.0 mi Calm Calm - N/A   Clear
11:53 PM 37.9 °F - 37.0 °F 97% 30.40 in 4.0 mi Calm Calm - N/A   Clear